User: anonymous   Login
Location: Alberta Star Party
(51.6612°N, 112.9089°W)
Time: 02:47:54
(UTC-06:00)
Language:

AO-Echo - Orbit

View from above orbital plane
View from above orbital plane
View from above satellite
View from above satellite

Ground track
Ground track

The orbit data is extracted from the following two-line orbital elements,

1 28375U 04025K   15113.82755797  .00000464  00000-0  14970-3 0  9995
2 28375 098.2886 055.8465 0083669 133.1650 227.6573 14.41635682568665
Epoch (UTC): 23 April 2015 19:51:41
Eccentricity: 0.0083669
inclination: 98.2886°
perigee height: 693 km
apogee height: 813 km
right ascension of ascending node: 55.8465°
argument of perigee: 133.1650°
revolutions per day: 14.41635682
mean anomaly at epoch: 227.6573°
orbit number at epoch: 56866

The dashed part of the orbit path shows where the satellite is in the earth's shadow,  

DLR